When you browse on this site, cookies collect data to enhance your experience and personalize the content and advertising you see.
Visit our Privacy Policy to learn more. By continuing to use the site, you agree to this use of cookies and data.
  • In United Kingdom
  • List of Countries
  • For 7 days
  • Water Temperature
  • Weather Map
  • Weather Widgets
  • user-avatar
    Login

    Hourly Weather Lebedyn

    Today, 27 February, Thursday

    Time Temperature Precipitation Wind Pressure Humidity
    00:00 +5°C° 0 mm 4 mps 730 mmHg 81%
    01:00 +5°C° 0 mm 4 mps 730 mmHg 80%
    02:00 +5°C° 0 mm 4 mps 729 mmHg 81%
    03:00 +4°C° 0 mm 3 mps 729 mmHg 83%
    04:00 +4°C° 0 mm 3 mps 729 mmHg 85%
    05:00 +5°C° 0 mm 2 mps 729 mmHg 88%
    06:00 +5°C° 0 mm 2 mps 729 mmHg 87%
    07:00 +5°C° 0 mm 2 mps 729 mmHg 87%
    08:00 +6°C° 0 mm 1 mps 730 mmHg 87%
    09:00 +6°C° 0.1 mm 2 mps 730 mmHg 85%
    10:00 +7°C° 0.1 mm 3 mps 730 mmHg 83%
    11:00 +6°C° 0.1 mm 5 mps 730 mmHg 81%
    12:00 +6°C° 0.1 mm 4 mps 730 mmHg 81%
    13:00 +7°C° 0.1 mm 3 mps 730 mmHg 81%
    14:00 +7°C° 0.1 mm 2 mps 729 mmHg 81%
    15:00 +5°C° 0.7 mm 4 mps 730 mmHg 85%
    16:00 +3°C° 0.7 mm 6 mps 730 mmHg 88%
    17:00 0°C° 0.7 mm 7 mps 730 mmHg 92%
    18:00 +1°C° 0.1 mm 6 mps 730 mmHg 89%
    19:00 +1°C° 0.1 mm 6 mps 731 mmHg 86%
    20:00 +1°C° 0.1 mm 5 mps 731 mmHg 84%
    21:00 +1°C° 0.1 mm 5 mps 730 mmHg 84%
    22:00 +1°C° 0.1 mm 5 mps 730 mmHg 85%
    23:00 +1°C° 0.1 mm 6 mps 730 mmHg 85%

    Tomorrow, 28 February, Friday

    Time Temperature Precipitation Wind Pressure Humidity
    00:00 +1°C° 0.8 mm 6 mps 730 mmHg 84%
    01:00 -1°C° 0.8 mm 7 mps 730 mmHg 84%
    02:00 -1°C° 0.8 mm 8 mps 730 mmHg 83%
    03:00 -1°C° 0.2 mm 7 mps 730 mmHg 81%
    04:00 -1°C° 0.2 mm 7 mps 731 mmHg 79%
    05:00 -1°C° 0.2 mm 6 mps 732 mmHg 77%
    06:00 -1°C° 0 mm 6 mps 732 mmHg 77%
    07:00 -2°C° 0 mm 6 mps 733 mmHg 77%
    08:00 -1°C° 0 mm 5 mps 734 mmHg 77%
    09:00 0°C° 0 mm 5 mps 735 mmHg 70%
    10:00 +1°C° 0 mm 5 mps 736 mmHg 64%
    11:00 +2°C° 0 mm 5 mps 737 mmHg 57%
    12:00 +3°C° 0 mm 5 mps 737 mmHg 54%
    13:00 +3°C° 0 mm 5 mps 737 mmHg 52%
    14:00 +5°C° 0 mm 5 mps 738 mmHg 49%
    15:00 +5°C° 0 mm 4 mps 738 mmHg 52%
    16:00 +4°C° 0 mm 3 mps 738 mmHg 55%
    17:00 +5°C° 0 mm 2 mps 738 mmHg 59%
    18:00 +4°C° 0 mm 2 mps 739 mmHg 61%
    19:00 +5°C° 0 mm 1 mps 739 mmHg 64%
    20:00 +5°C° 0 mm 1 mps 740 mmHg 66%
    21:00 +4°C° 0 mm 1 mps 740 mmHg 68%
    22:00 +4°C° 0 mm 1 mps 740 mmHg 69%
    23:00 +4°C° 0 mm 1 mps 740 mmHg 70%

    Day after tomorrow, 29 February, Saturday

    Time Temperature Precipitation Wind Pressure Humidity
    00:00 +4°C° 0 mm 1 mps 740 mmHg 71%
    01:00 +4°C° 0 mm 1 mps 741 mmHg 73%
    02:00 +3°C° 0 mm 1 mps 741 mmHg 74%
    03:00 +3°C° 0 mm 1 mps 741 mmHg 74%
    04:00 +3°C° 0 mm 1 mps 741 mmHg 74%
    05:00 +3°C° 0 mm 1 mps 741 mmHg 74%
    06:00 +3°C° 0 mm 1 mps 742 mmHg 74%
    07:00 +3°C° 0 mm 1 mps 742 mmHg 74%
    08:00 +3°C° 0 mm 1 mps 742 mmHg 73%
    09:00 +3°C° 0 mm 2 mps 743 mmHg 68%
    10:00 +4°C° 0 mm 2 mps 743 mmHg 63%
    11:00 +5°C° 0 mm 2 mps 743 mmHg 59%
    12:00 +5°C° 0.2 mm 3 mps 743 mmHg 55%
    13:00 +5°C° 0.2 mm 3 mps 743 mmHg 52%
    14:00 +7°C° 0.2 mm 3 mps 743 mmHg 49%
    15:00 +5°C° 0 mm 3 mps 743 mmHg 50%
    16:00 +6°C° 0 mm 2 mps 744 mmHg 51%
    17:00 +6°C° 0 mm 2 mps 744 mmHg 52%
    18:00 +6°C° 0 mm 1 mps 744 mmHg 55%
    19:00 +5°C° 0 mm 1 mps 745 mmHg 58%
    20:00 +3°C° 0 mm 0 mps 745 mmHg 60%
    21:00 +4°C° 0 mm 1 mps 745 mmHg 62%
    22:00 +4°C° 0 mm 1 mps 745 mmHg 63%
    23:00 +3°C° 0 mm 1 mps 746 mmHg 64%

    1 March, Sunday

    Time Temperature Precipitation Wind Pressure Humidity
    00:00 +3°C° 0 mm 1 mps 746 mmHg 66%
    01:00 +2°C° 0 mm 2 mps 746 mmHg 68%
    02:00 +1°C° 0 mm 2 mps 746 mmHg 70%
    03:00 +1°C° 0 mm 2 mps 746 mmHg 72%
    04:00 +1°C° 0 mm 2 mps 746 mmHg 74%
    05:00 0°C° 0 mm 3 mps 746 mmHg 75%
    06:00 0°C° 0 mm 3 mps 746 mmHg 74%
    07:00 0°C° 0 mm 4 mps 747 mmHg 73%
    08:00 0°C° 0 mm 4 mps 747 mmHg 72%
    09:00 +2°C° 0 mm 5 mps 747 mmHg 66%
    10:00 +3°C° 0 mm 6 mps 747 mmHg 60%
    11:00 +5°C° 0 mm 7 mps 747 mmHg 54%
    12:00 +5°C° 0 mm 7 mps 746 mmHg 52%
    13:00 +6°C° 0 mm 8 mps 746 mmHg 51%
    14:00 +6°C° 0 mm 8 mps 746 mmHg 49%
    15:00 +6°C° 0 mm 8 mps 745 mmHg 53%
    16:00 +5°C° 0 mm 7 mps 745 mmHg 56%
    17:00 +5°C° 0 mm 7 mps 745 mmHg 60%
    18:00 +4°C° 0 mm 7 mps 745 mmHg 62%
    19:00 +3°C° 0 mm 7 mps 745 mmHg 64%
    20:00 +3°C° 0 mm 7 mps 745 mmHg 66%
    21:00 +3°C° 0 mm 7 mps 745 mmHg 70%
    22:00 +2°C° 0 mm 7 mps 745 mmHg 74%
    23:00 +1°C° 0 mm 8 mps 745 mmHg 77%

    2 March, Monday

    Time Temperature Precipitation Wind Pressure Humidity
    00:00 +1°C° 0 mm 8 mps 744 mmHg 79%
    01:00 +1°C° 0 mm 8 mps 744 mmHg 81%
    02:00 +1°C° 0 mm 8 mps 744 mmHg 83%
    03:00 +1°C° 0 mm 8 mps 744 mmHg 83%
    04:00 +1°C° 0 mm 8 mps 743 mmHg 84%
    05:00 0°C° 0 mm 8 mps 743 mmHg 84%
    06:00 +1°C° 0 mm 8 mps 743 mmHg 83%
    07:00 +1°C° 0 mm 8 mps 743 mmHg 82%
    08:00 +1°C° 0 mm 8 mps 743 mmHg 82%
    09:00 +2°C° 0 mm 9 mps 743 mmHg 75%
    10:00 +3°C° 0 mm 9 mps 743 mmHg 69%
    11:00 +5°C° 0 mm 9 mps 742 mmHg 62%
    12:00 +5°C° 0 mm 9 mps 742 mmHg 59%
    13:00 +5°C° 0 mm 9 mps 741 mmHg 56%
    14:00 +6°C° 0 mm 9 mps 741 mmHg 53%
    15:00 +5°C° 0 mm 9 mps 740 mmHg 52%
    16:00 +5°C° 0 mm 9 mps 740 mmHg 52%
    17:00 +5°C° 0 mm 9 mps 739 mmHg 51%
    18:00 +5°C° 0 mm 9 mps 739 mmHg 54%
    19:00 +3°C° 0 mm 9 mps 739 mmHg 58%
    20:00 +3°C° 0 mm 9 mps 738 mmHg 61%
    21:00 +3°C° 0.1 mm 9 mps 738 mmHg 65%
    22:00 +2°C° 0.1 mm 9 mps 738 mmHg 69%
    23:00 +2°C° 0.1 mm 9 mps 737 mmHg 73%

    3 March, Tuesday

    Time Temperature Precipitation Wind Pressure Humidity
    00:00 +2°C° 0.2 mm 9 mps 737 mmHg 77%
    01:00 +3°C° 0.2 mm 9 mps 737 mmHg 81%
    02:00 +4°C° 0.2 mm 8 mps 736 mmHg 85%
    03:00 +4°C° 0 mm 8 mps 736 mmHg 86%
    04:00 +4°C° 0 mm 7 mps 736 mmHg 88%
    05:00 +4°C° 0 mm 7 mps 736 mmHg 89%
    06:00 +4°C° 0 mm 6 mps 737 mmHg 89%
    07:00 +5°C° 0 mm 5 mps 737 mmHg 89%
    08:00 +5°C° 0 mm 4 mps 738 mmHg 89%
    09:00 +6°C° 0 mm 4 mps 738 mmHg 84%
    10:00 +9°C° 0 mm 3 mps 739 mmHg 79%
    11:00 +10°C° 0 mm 3 mps 740 mmHg 73%
    12:00 +11°C° 0 mm 3 mps 740 mmHg 68%
    13:00 +13°C° 0 mm 2 mps 740 mmHg 63%
    14:00 +14°C° 0 mm 2 mps 741 mmHg 58%
    15:00 +14°C° 0 mm 2 mps 741 mmHg 59%
    16:00 +13°C° 0 mm 1 mps 741 mmHg 61%
    17:00 +13°C° 0 mm 1 mps 741 mmHg 62%
    18:00 +12°C° 0 mm 1 mps 741 mmHg 67%
    19:00 +12°C° 0 mm 2 mps 741 mmHg 71%
    20:00 +10°C° 0 mm 2 mps 741 mmHg 75%
    21:00 +9°C° 0 mm 3 mps 741 mmHg 77%
    22:00 +9°C° 0 mm 3 mps 741 mmHg 79%
    23:00 +8°C° 0 mm 3 mps 741 mmHg 82%
    Show more